Location: Ostrava
(49.8330°N, 18.2830°E)
Time: 05:24:12
(UTC+02:00)

ISS - Pass Details

Date: 22 May 2021
Orbit: 417 x 422 km, 51.6° (Epoch: 13 June)

Event Time Altitude Azimuth Distance (km) Brightness Sun altitude
Rises 21:20:57 0° 267° (W) 2,362 0.8 -6.6°
Reaches altitude 10° 21:23:04 10° 271° (W) 1,500 -0.2 -6.8°
Maximum altitude 21:26:25 64° 353° (N) 468 -3.3 -7.2°
Drops below altitude 10° 21:29:46 10° 77° (ENE) 1,504 -1.2 -7.6°
Sets 21:31:53 0° 80° (E) 2,370 -0.3 -7.8°
